Вернуться в каталог

FENGYUN 1C DEB

АктивенSSO
NORAD 31043·DEBRIS·🇨🇳 China

Запущен May 10, 1999 с Taiyuan Satellite Launch Center

Loading…

Ближайшие Пролёты (ближайшие 24 часа)

TLE

СвежийSource: Space-Track

Эпоха: Sep 14, 2026, 07:35 UTC

1 31043U 99025BEM 26257.31654321  .00000361  00000-0  23237-3 0  9993
2 31043  98.7521 272.2089 0040172 305.8407 121.3710 14.08818852998675

Отслеживайте FENGYUN 1C DEB в реальном времени с AllMySat

Download on the App Store